#timestamp,LO_Frequency,Hit 
1500735615.8,286046998.1,N
1500735635.7,286046999.1,N
1500735655.5,286046999.0,N
1500735675.4,286046998.8,N
1500735695.2,286046998.9,N
1500735715.0,286046999.3,N
1500735715.9,286046999.3,N
1500735735.8,286046999.3,N
1500735755.6,286046999.2,N
1500735775.4,286046999.1,N
1500735795.3,286046998.8,N
1500735815.1,286046998.9,N
1500735835.9,286046999.2,N
1500735855.7,286046999.4,N
1500735875.5,286046997.1,N
1500735895.4,286046997.7,N
1500735915.2,286046997.8,N
1500735935.0,286046997.2,N
1500735935.9,286046997.2,N
1500735955.8,286046997.9,N
1500735975.6,286046997.4,N
1500735995.4,286046997.4,N
1500736015.3,286046997.0,N
1500736035.1,286046996.5,N
1500736055.9,286046996.7,N
1500736075.7,286046997.0,N
1500736095.5,286046999.1,N
1500736115.4,286046999.1,N
1500736135.2,286046998.8,N
1500736155.0,286046998.9,N
1500736155.9,286046998.9,N
1500736175.8,286046998.4,N
1500736195.6,286046998.5,N
1500736215.5,286046998.4,N
1500736235.3,286046998.4,N
1500736255.1,286046998.4,N
1500736275.9,286046999.4,N
1500736295.7,286046999.5,N
1500736315.5,286046999.5,N
1500736335.4,286046999.2,N
1500736355.2,286046998.8,N
1500736375.1,286046998.1,N
1500736376.0,286046998.1,N
1500736395.8,286046998.9,N
1500736415.6,286046998.4,N
1500736435.5,286046999.4,N
1500736455.3,286046999.4,N
1500736475.1,286046999.2,N
1500736495.9,286046999.0,N
1500736515.7,286046998.2,N
1500736535.6,286046998.7,N
1500736555.4,286046999.1,N
1500736575.2,286046996.6,Y
1500736595.1,286047000.4,N
1500736596.0,286047000.4,N
1500736615.8,286046999.9,N
1500736635.7,286047000.2,N
1500736655.5,286047000.5,N
1500736675.3,286047000.5,N
1500736695.2,286047002.7,N
1500736715.9,286046999.9,N
1500736735.7,286047000.6,N
1500736755.6,286047001.0,N
1500736775.4,286047000.7,N
1500736795.3,286047000.8,N
1500736815.1,286046999.9,N
1500736816.0,286046999.9,N
1500736835.8,286047002.8,N
1500736855.7,286046999.7,N
1500736875.1,286047002.8,N
1500736876.0,286047002.8,N
1500736895.8,286046999.7,N
1500736915.7,286047002.8,N
1500736935.5,286047002.3,N
1500736955.4,286046999.9,N
1500736975.2,286047000.5,N
1500736995.0,286047002.5,N
1500736995.9,286047002.5,N
1500737015.8,286047002.4,N
1500737035.6,286047001.8,N
1500737055.4,286047001.3,N
1500737075.3,286047001.6,N
1500737095.1,286047002.4,N
1500737115.9,286047002.3,N
1500737135.7,286047002.7,N
1500737155.5,286047002.4,N
1500737175.4,286047002.6,N
1500737195.2,286047000.1,N
1500737215.0,286047000.0,N
1500737215.9,286047000.0,N
1500737235.8,286046999.8,N
1500737255.6,286047000.0,N
1500737275.5,286047002.7,N
1500737295.3,286046999.7,N
1500737315.1,286047000.1,N
1500737335.9,286047000.2,N
1500737355.7,286047000.8,N
1500737375.5,286047001.2,N
1500737395.4,286047000.9,N
1500737415.2,286047001.0,N
1500737435.1,286047001.2,N
1500737436.0,286047001.2,N
1500737455.8,286046998.1,N
1500737475.6,286046998.6,N
1500737495.5,286047000.8,N
1500737515.3,286046998.2,N
1500737535.1,286046998.5,N
1500737555.9,286046998.2,N
1500737575.7,286046998.1,N
1500737595.6,286047001.0,N
1500737615.4,286046998.5,N
1500737635.2,286047000.7,N
1500737655.1,286047001.0,N
1500737656.0,286047001.0,N
1500737675.8,286046998.6,N
1500737695.7,286046998.9,N
1500737715.5,286046997.0,N
1500737735.3,286046999.3,N
1500737755.2,286046999.4,N
1500737775.9,286046999.2,N
1500737795.7,286046998.8,N
1500737815.6,286047001.1,N
1500737835.4,286047000.5,N
1500737855.3,286047001.0,N
1500737875.1,286046998.1,N
1500737876.0,286046998.1,N
1500737895.8,286046998.6,N
1500737915.7,286046998.4,N
1500737935.5,286047001.1,N
1500737955.3,286046998.1,N
1500737975.2,286046998.8,N
1500737995.0,286046998.3,N
1500737995.9,286046998.3,N
1500738015.8,286046998.4,N
1500738035.6,286046998.6,N
1500738055.4,286046998.5,N
1500738075.3,286046998.1,N
1500738095.1,286047001.0,N
1500738115.8,286047000.6,N
1500738135.7,286046999.9,N
1500738155.5,286047000.9,N
1500738175.3,286047000.6,N
1500738195.2,286047000.8,N
1500738215.0,286047000.9,N
1500738215.9,286047000.9,N
1500738235.8,286047000.6,N
1500738255.6,286047000.6,N
1500738275.4,286047000.4,N
1500738295.3,286047000.5,N
1500738315.1,286047000.6,N
1500738335.9,28601500738355.8,286046999.8,Y
1500738375.6,286047000.1,N
1500738395.5,286046999.8,N
1500738415.3,286047000.5,Y
1500738435.1,286047001.2,Y
1500738455.9,286047000.3,N
1500738475.7,286047000.4,N
1500738495.6,286047000.9,N
1500738515.4,286047000.7,N
1500738535.2,286047000.1,N
1500738555.1,286047000.6,N
1500738556.0,286047000.6,N
1500738575.8,286047000.0,N
1500738595.6,286046999.9,N
1500738615.5,286047000.1,N
1500738635.3,286047000.6,N
1500738655.2,286047000.4,N
1500738675.9,286047000.6,N
1500738695.7,286047000.6,N
1500738715.6,286046998.1,Y
1500738735.4,286046998.4,N
1500738755.2,286046998.6,N
1500738775.1,286047000.8,N
1500738776.0,286047000.8,N
1500738795.8,286047001.0,N
1500738815.7,286047001.2,N
1500738835.5,286047000.6,N
1500738855.3,286047000.7,N
1500738875.2,286047000.4,N
1500738895.0,286047000.7,N
1500738895.9,286047000.7,N
1500738915.7,286047000.7,N
1500738935.6,286047000.4,N
1500738955.4,286047000.7,Y
1500738975.3,286046999.9,N
1500738995.1,286047004.0,Y
1500739015.8,286047001.4,N
1500739035.7,286047001.4,N
1500739055.5,286047003.5,Y
1500739075.4,286047001.3,N
1500739095.2,286047003.8,Y
1500739115.0,286047000.3,N
1500739115.9,286047000.3,N
1500739135.8,286047000.8,N
1500739155.6,286046998.7,N
1500739175.4,286046998.9,N
1500739195.3,286046999.6,N
